Time,TemperatureF,DewpointF,PressureIn,WindDirection,WindDirectionDegrees,WindSpeedMPH,WindSpeedGustMPH,Humidity,HourlyPrecipIn,Conditions,Clouds,dailyrainin,SoftwareType,DateUTC
2013-07-01 07:04:00,66.8,65.6,29.83,NW,321,0.0,0.0,96,0.00,,,0.00,Wunderground v.1.15,2013-07-01 12:04:00,
2013-07-01 07:05:00,66.8,65.6,29.83,NW,321,0.0,0.0,96,0.00,,,0.00,Wunderground v.1.15,2013-07-01 12:05:00,
2013-07-01 07:07:00,66.9,65.7,29.83,NW,321,0.0,0.0,96,0.00,,,0.00,Wunderground v.1.15,2013-07-01 12:07:00,
2013-07-01 07:13:00,67.0,65.8,29.84,NNW,329,0.0,2.0,96,0.00,,,0.00,Wunderground v.1.15,2013-07-01 12:13:00,
2013-07-01 07:14:00,67.1,65.9,29.84,NNW,329,0.0,2.0,96,0.00,,,0.00,Wunderground v.1.15,2013-07-01 12:14:00,
2013-07-01 07:20:00,67.2,66.0,29.84,NNW,330,0.0,2.0,96,0.00,,,0.00,Wunderground v.1.15,2013-07-01 12:20:00,
2013-07-01 07:25:00,67.3,65.8,29.84,NNW,331,0.0,1.0,95,0.00,,,0.00,Wunderground v.1.15,2013-07-01 12:25:00,
2013-07-01 07:30:00,67.6,66.1,29.84,NNW,338,0.0,1.0,95,0.00,,,0.00,Wunderground v.1.15,2013-07-01 12:30:00,
2013-07-01 07:35:00,67.7,66.2,29.84,NNW,338,0.0,0.0,95,0.00,,,0.00,Wunderground v.1.15,2013-07-01 12:35:00,
2013-07-01 07:41:00,67.9,66.4,29.84,NNW,341,0.0,0.0,95,0.00,,,0.00,Wunderground v.1.15,2013-07-01 12:41:00,
2013-07-01 07:46:00,68.1,66.3,29.84,NNW,342,0.0,1.0,94,0.00,,,0.00,Wunderground v.1.15,2013-07-01 12:46:00,
2013-07-01 07:52:00,68.1,66.3,29.84,NNW,343,0.0,1.0,94,0.00,,,0.00,Wunderground v.1.15,2013-07-01 12:52:00,
2013-07-01 07:58:00,68.3,66.2,29.84,NNW,344,0.0,2.0,93,0.00,,,0.00,Wunderground v.1.15,2013-07-01 12:58:00,
2013-07-01 08:04:00,68.5,66.4,29.85,NNW,344,0.0,0.0,93,0.00,,,0.00,Wunderground v.1.15,2013-07-01 13:04:00,
2013-07-01 08:10:00,68.6,66.2,29.85,NNW,344,0.0,0.0,92,0.00,,,0.00,Wunderground v.1.15,2013-07-01 13:10:00,
2013-07-01 08:15:00,68.8,66.4,29.85,NNW,344,0.0,0.0,92,0.00,,,0.00,Wunderground v.1.15,2013-07-01 13:15:00,
2013-07-01 08:25:00,69.4,67.0,29.85,North,360,0.0,1.0,92,0.00,,,0.00,Wunderground v.1.15,2013-07-01 13:25:00,
2013-07-01 08:31:00,69.6,66.9,29.85,NW,319,0.0,1.0,91,0.00,,,0.00,Wunderground v.1.15,2013-07-01 13:31:00,
2013-07-01 08:36:00,69.8,66.4,29.85,NW,319,0.0,0.0,89,0.00,,,0.00,Wunderground v.1.15,2013-07-01 13:36:00,
2013-07-01 08:42:00,70.1,66.7,29.85,NW,319,0.0,0.0,89,0.00,,,0.00,Wunderground v.1.15,2013-07-01 13:42:00,
2013-07-01 08:48:00,70.4,67.3,29.85,NW,319,0.0,0.0,90,0.00,,,0.00,Wunderground v.1.15,2013-07-01 13:48:00,
2013-07-01 08:54:00,70.7,66.6,29.85,NW,319,0.0,0.0,87,0.00,,,0.00,Wunderground v.1.15,2013-07-01 13:54:00,
2013-07-01 08:59:00,70.9,66.8,29.85,NW,319,0.0,2.0,87,0.00,,,0.00,Wunderground v.1.15,2013-07-01 13:59:00,
2013-07-01 09:05:00,71.0,66.9,29.85,NW,316,0.0,2.0,87,0.00,,,0.00,Wunderground v.1.15,2013-07-01 14:05:00,
2013-07-01 09:41:00,71.8,66.7,29.84,NW,315,0.0,0.0,84,0.00,,,0.00,Wunderground v.1.15,2013-07-01 14:41:00,
2013-07-01 09:47:00,72.0,66.9,29.85,NW,315,0.0,1.0,84,0.00,,,0.00,Wunderground v.1.15,2013-07-01 14:47:00,
2013-07-01 09:53:00,72.1,66.6,29.85,NW,315,0.0,0.0,83,0.00,,,0.00,Wunderground v.1.15,2013-07-01 14:53:00,
2013-07-01 09:58:00,72.3,67.2,29.85,WNW,288,1.0,2.0,84,0.00,,,0.00,Wunderground v.1.15,2013-07-01 14:58:00,
2013-07-01 10:04:00,72.3,66.8,29.85,WNW,288,1.0,2.0,83,0.00,,,0.00,Wunderground v.1.15,2013-07-01 15:04:00,
2013-07-01 10:09:00,72.5,67.7,29.85,WNW,286,1.0,3.0,85,0.00,,,0.00,Wunderground v.1.15,2013-07-01 15:09:00,
2013-07-01 10:14:00,72.6,66.8,29.85,WNW,284,1.0,3.0,82,0.00,,,0.00,Wunderground v.1.15,2013-07-01 15:14:00,
2013-07-01 10:19:00,72.9,67.4,29.85,West,281,1.0,3.0,83,0.00,,,0.00,Wunderground v.1.15,2013-07-01 15:19:00,
2013-07-01 10:24:00,73.2,67.7,29.85,West,281,0.0,2.0,83,0.00,,,0.00,Wunderground v.1.15,2013-07-01 15:24:00,
2013-07-01 10:30:00,73.5,67.3,29.84,West,279,0.0,0.0,81,0.00,,,0.00,Wunderground v.1.15,2013-07-01 15:30:00,
2013-07-01 12:04:00,74.7,65.5,29.84,SW,235,4.0,8.0,73,0.00,,,0.00,Wunderground v.1.15,2013-07-01 17:04:00,
2013-07-01 12:10:00,72.4,64.0,29.84,WSW,246,7.0,10.0,75,0.00,,,0.00,Wunderground v.1.15,2013-07-01 17:10:00,
2013-07-01 12:15:00,70.7,62.8,29.85,WSW,258,6.0,7.0,76,0.00,,,0.00,Wunderground v.1.15,2013-07-01 17:15:00,
2013-07-01 12:22:00,67.9,63.6,29.85,SSW,200,6.0,8.0,86,0.00,,,0.01,Wunderground v.1.15,2013-07-01 17:22:00,
2013-07-01 12:28:00,66.9,63.6,29.84,SW,236,4.0,5.0,89,0.00,,,0.01,Wunderground v.1.15,2013-07-01 17:28:00,
2013-07-01 12:34:00,66.9,63.9,29.85,WSW,239,3.0,5.0,90,0.06,,,0.02,Wunderground v.1.15,2013-07-01 17:34:00,
2013-07-01 12:39:00,67.1,64.4,29.85,WSW,247,3.0,5.0,91,0.06,,,0.02,Wunderground v.1.15,2013-07-01 17:39:00,
2013-07-01 12:44:00,67.3,65.2,29.85,WSW,237,2.0,2.0,93,0.04,,,0.02,Wunderground v.1.15,2013-07-01 17:44:00,
2013-07-01 12:49:00,67.4,65.3,29.84,West,263,1.0,3.0,93,0.00,,,0.02,Wunderground v.1.15,2013-07-01 17:49:00,
2013-07-01 14:12:00,70.6,67.2,29.86,West,261,3.0,11.0,89,0.00,,,0.02,Wunderground v.1.15,2013-07-01 19:12:00,
2013-07-01 14:18:00,71.1,67.7,29.86,WSW,243,2.0,11.0,89,0.00,,,0.02,Wunderground v.1.15,2013-07-01 19:18:00,
2013-07-01 14:23:00,71.5,67.8,29.86,WSW,242,2.0,11.0,88,0.00,,,0.02,Wunderground v.1.15,2013-07-01 19:23:00,
2013-07-01 14:29:00,71.8,67.7,29.85,SW,233,1.0,11.0,87,0.00,,,0.02,Wunderground v.1.15,2013-07-01 19:29:00,
2013-07-01 14:35:00,72.3,68.5,29.86,NE,34,1.0,11.0,88,0.00,,,0.02,Wunderground v.1.15,2013-07-01 19:35:00,
2013-07-01 14:41:00,72.8,68.4,29.85,SSE,150,0.0,11.0,86,0.00,,,0.02,Wunderground v.1.15,2013-07-01 19:41:00,
2013-07-01 14:46:00,73.1,69.0,29.85,SSE,150,0.0,11.0,87,0.00,,,0.02,Wunderground v.1.15,2013-07-01 19:46:00,
2013-07-01 14:52:00,73.6,69.2,29.84,NNE,30,0.0,11.0,86,0.00,,,0.02,Wunderground v.1.15,2013-07-01 19:52:00,
2013-07-01 14:57:00,73.8,68.7,29.84,ESE,104,0.0,11.0,84,0.00,,,0.02,Wunderground v.1.15,2013-07-01 19:57:00,
2013-07-01 15:03:00,73.4,67.6,29.83,East,87,1.0,2.0,82,0.00,,,0.02,Wunderground v.1.15,2013-07-01 20:03:00,
2013-07-01 15:08:00,72.9,67.4,29.83,NE,36,1.0,3.0,83,0.00,,,0.02,Wunderground v.1.15,2013-07-01 20:08:00,
2013-07-01 15:13:00,72.9,67.8,29.82,ENE,57,2.0,3.0,84,0.00,,,0.02,Wunderground v.1.15,2013-07-01 20:13:00,
2013-07-01 15:18:00,73.7,68.6,29.82,SE,145,2.0,3.0,84,0.00,,,0.02,Wunderground v.1.15,2013-07-01 20:18:00,
2013-07-01 15:23:00,74.4,69.6,29.81,ESE,103,1.0,2.0,85,0.00,,,0.02,Wunderground v.1.15,2013-07-01 20:23:00,
2013-07-01 15:28:00,74.9,69.0,29.82,NE,47,1.0,5.0,82,0.00,,,0.02,Wunderground v.1.15,2013-07-01 20:28:00,
2013-07-01 15:33:00,74.7,68.5,29.82,NNE,24,2.0,2.0,81,0.00,,,0.02,Wunderground v.1.15,2013-07-01 20:33:00,
2013-07-01 15:39:00,74.4,68.9,29.83,NNE,18,2.0,4.0,83,0.00,,,0.02,Wunderground v.1.15,2013-07-01 20:39:00,
2013-07-01 15:45:00,74.5,67.9,29.83,SSW,198,1.0,2.0,80,0.00,,,0.02,Wunderground v.1.15,2013-07-01 20:45:00,
2013-07-01 15:50:00,74.6,66.9,29.83,ENE,63,1.0,2.0,77,0.00,,,0.02,Wunderground v.1.15,2013-07-01 20:50:00,
2013-07-01 15:55:00,74.4,66.7,29.84,ENE,59,1.0,2.0,77,0.00,,,0.02,Wunderground v.1.15,2013-07-01 20:55:00,
2013-07-01 16:00:00,74.1,66.8,29.84,NE,36,0.0,1.0,78,0.00,,,0.02,Wunderground v.1.15,2013-07-01 21:00:00,
2013-07-01 16:06:00,73.7,66.4,29.84,South,177,0.0,1.0,78,0.00,,,0.02,Wunderground v.1.15,2013-07-01 21:06:00,
2013-07-01 16:11:00,73.2,65.6,29.84,SE,142,1.0,1.0,77,0.00,,,0.02,Wunderground v.1.15,2013-07-01 21:11:00,
2013-07-01 16:16:00,73.0,65.7,29.85,SSE,157,1.0,1.0,78,0.00,,,0.02,Wunderground v.1.15,2013-07-01 21:16:00,
2013-07-01 16:22:00,73.2,67.4,29.85,SSW,196,0.0,1.0,82,0.00,,,0.02,Wunderground v.1.15,2013-07-01 21:22:00,
2013-07-01 16:28:00,73.8,67.6,29.85,WSW,244,1.0,4.0,81,0.00,,,0.02,Wunderground v.1.15,2013-07-01 21:28:00,
2013-07-01 16:33:00,74.5,67.2,29.85,WSW,240,1.0,6.0,78,0.00,,,0.02,Wunderground v.1.15,2013-07-01 21:33:00,
2013-07-01 16:38:00,74.4,67.1,29.85,SW,232,1.0,6.0,78,0.00,,,0.02,Wunderground v.1.15,2013-07-01 21:38:00,
2013-07-01 16:44:00,74.0,66.3,29.85,SW,218,1.0,2.0,77,0.00,,,0.02,Wunderground v.1.15,2013-07-01 21:44:00,
2013-07-01 16:49:00,73.7,66.4,29.85,NE,45,1.0,2.0,78,0.00,,,0.02,Wunderground v.1.15,2013-07-01 21:49:00,
2013-07-01 16:55:00,73.8,66.5,29.85,NE,34,1.0,2.0,78,0.00,,,0.02,Wunderground v.1.15,2013-07-01 21:55:00,
2013-07-01 17:00:00,73.8,66.9,29.85,SW,234,1.0,2.0,79,0.00,,,0.02,Wunderground v.1.15,2013-07-01 22:00:00,
2013-07-01 17:06:00,73.8,67.2,29.86,ENE,67,1.0,2.0,80,0.00,,,0.02,Wunderground v.1.15,2013-07-01 22:06:00,
2013-07-01 17:11:00,74.1,67.9,29.86,NNE,12,1.0,3.0,81,0.00,,,0.02,Wunderground v.1.15,2013-07-01 22:11:00,
2013-07-01 17:16:00,74.0,67.1,29.86,NW,323,1.0,6.0,79,0.00,,,0.02,Wunderground v.1.15,2013-07-01 22:16:00,
2013-07-01 17:22:00,73.8,67.2,29.86,SSW,193,1.0,1.0,80,0.00,,,0.02,Wunderground v.1.15,2013-07-01 22:22:00,
2013-07-01 17:27:00,73.7,67.1,29.86,NE,38,0.0,2.0,80,0.00,,,0.02,Wunderground v.1.15,2013-07-01 22:27:00,
2013-07-01 17:32:00,73.5,66.6,29.86,ENE,77,0.0,0.0,79,0.00,,,0.02,Wunderground v.1.15,2013-07-01 22:32:00,
2013-07-01 17:38:00,73.4,66.9,29.86,SE,126,0.0,1.0,80,0.00,,,0.02,Wunderground v.1.15,2013-07-01 22:38:00,
2013-07-01 17:43:00,73.2,66.3,29.86,SSW,198,0.0,1.0,79,0.00,,,0.02,Wunderground v.1.15,2013-07-01 22:43:00,
2013-07-01 17:49:00,72.7,66.2,29.87,NE,44,0.0,1.0,80,0.00,,,0.02,Wunderground v.1.15,2013-07-01 22:49:00,